{"data":{"norad_id":64793,"epoch":"2026-09-20T13:43:50.812032Z","epoch_age_seconds":121628,"freshness":"FRESH","line1":"1 64793U 25150D   26263.57211588  .00002264  00000+0  19746-3 0  9991","line2":"2 64793  70.0031   3.2677 0003296 269.6790  90.3991 14.98337277 65706","mean_motion":14.98337277,"eccentricity":0.0003296,"inclination_deg":70.0031,"raan_deg":3.2677,"arg_perigee_deg":269.679,"mean_anomaly_deg":90.3991,"bstar":0.00019746,"rev_number":6570,"period_min":96.106532361205,"perigee_km":569.74261135355,"apogee_km":574.324163673,"semimajor_km":6950.1703875133,"source":"CELESTRAK","updated_at":"2026-09-21T09:00:35.442851Z"}}